Time,TemperatureF,DewpointF,PressureIn,WindDirection,WindDirectionDegrees,WindSpeedMPH,WindSpeedGustMPH,Humidity,HourlyPrecipIn,Conditions,Clouds,dailyrainin,SoftwareType,DateUTC
2013-05-13 00:00:00,67.5,64.4,29.88,NE,45,0.0,-999.0,90,-99.99,,,0.00,Acu-Link.com,2013-05-13 04:00:00,
2013-05-13 00:15:00,67.1,64.4,29.88,West,270,0.0,-999.0,91,-99.99,,,0.00,Acu-Link.com,2013-05-13 04:15:00,
2013-05-13 00:30:00,66.7,63.7,29.88,SE,135,0.0,-999.0,90,-99.99,,,0.00,Acu-Link.com,2013-05-13 04:30:00,
2013-05-13 00:46:00,66.0,63.6,29.88,SSE,157,0.0,-999.0,92,-99.99,,,0.00,Acu-Link.com,2013-05-13 04:46:00,
2013-05-13 01:01:00,65.8,63.4,29.87,SE,135,0.0,-999.0,92,-99.99,,,0.00,Acu-Link.com,2013-05-13 05:01:00,
2013-05-13 01:16:00,65.5,63.4,29.86,NW,315,0.0,-999.0,93,-99.99,,,0.00,Acu-Link.com,2013-05-13 05:16:00,
2013-05-13 01:31:00,64.9,63.2,29.86,SE,135,0.0,-999.0,94,-99.99,,,0.00,Acu-Link.com,2013-05-13 05:31:00,
2013-05-13 01:47:00,64.2,62.2,29.86,SE,135,0.0,-999.0,93,-99.99,,,0.00,Acu-Link.com,2013-05-13 05:47:00,
2013-05-13 02:02:00,63.9,62.1,29.85,West,270,0.0,-999.0,94,-99.99,,,0.00,Acu-Link.com,2013-05-13 06:02:00,
2013-05-13 02:17:00,63.9,62.1,29.86,SE,135,0.0,-999.0,94,-99.99,,,0.00,Acu-Link.com,2013-05-13 06:17:00,
2013-05-13 02:33:00,63.7,61.9,29.86,East,90,0.0,-999.0,94,-99.99,,,0.00,Acu-Link.com,2013-05-13 06:33:00,
2013-05-13 02:48:00,63.3,61.6,29.86,SSE,157,0.0,-999.0,94,-99.99,,,0.00,Acu-Link.com,2013-05-13 06:48:00,
2013-05-13 03:03:00,63.1,61.1,29.86,ESE,112,0.0,-999.0,93,-99.99,,,0.00,Acu-Link.com,2013-05-13 07:03:00,
2013-05-13 03:18:00,63.1,61.4,29.86,ESE,112,0.0,-999.0,94,-99.99,,,0.00,Acu-Link.com,2013-05-13 07:18:00,
2013-05-13 03:34:00,63.1,61.1,29.86,ESE,112,0.0,-999.0,93,-99.99,,,0.00,Acu-Link.com,2013-05-13 07:34:00,
2013-05-13 03:49:00,63.1,60.8,29.86,ESE,112,0.0,-999.0,92,-99.99,,,0.00,Acu-Link.com,2013-05-13 07:49:00,
2013-05-13 04:04:00,63.1,61.1,29.86,WNW,292,0.0,-999.0,93,-99.99,,,0.00,Acu-Link.com,2013-05-13 08:04:00,
2013-05-13 04:19:00,63.3,61.6,29.86,ENE,67,0.0,-999.0,94,-99.99,,,0.00,Acu-Link.com,2013-05-13 08:19:00,
2013-05-13 04:35:00,63.3,61.3,29.86,SE,135,0.0,-999.0,93,-99.99,,,0.00,Acu-Link.com,2013-05-13 08:35:00,
2013-05-13 04:50:00,63.3,61.0,29.87,ENE,67,0.0,-999.0,92,-99.99,,,0.00,Acu-Link.com,2013-05-13 08:50:00,
2013-05-13 05:05:00,63.3,60.0,29.87,SSE,157,0.0,-999.0,89,-99.99,,,0.00,Acu-Link.com,2013-05-13 09:05:00,
2013-05-13 05:20:00,63.5,57.9,29.88,SW,225,0.0,-999.0,82,-99.99,,,0.00,Acu-Link.com,2013-05-13 09:20:00,
2013-05-13 05:35:00,63.5,56.2,29.88,SW,225,0.0,-999.0,77,-99.99,,,0.00,Acu-Link.com,2013-05-13 09:35:00,
2013-05-13 05:51:00,63.7,54.5,29.89,West,270,0.0,-999.0,72,-99.99,,,0.00,Acu-Link.com,2013-05-13 09:51:00,
2013-05-13 06:06:00,63.9,52.7,29.89,SW,225,0.0,-999.0,67,-99.99,,,0.00,Acu-Link.com,2013-05-13 10:06:00,
2013-05-13 06:21:00,63.9,50.6,29.90,SW,225,0.0,-999.0,62,-99.99,,,0.00,Acu-Link.com,2013-05-13 10:21:00,
2013-05-13 06:37:00,63.7,49.1,29.90,South,180,0.0,-999.0,59,-99.99,,,0.00,Acu-Link.com,2013-05-13 10:37:00,
2013-05-13 06:52:00,63.5,49.8,29.92,SSW,202,0.0,-999.0,61,-99.99,,,0.00,Acu-Link.com,2013-05-13 10:52:00,
2013-05-13 07:07:00,63.3,48.3,29.92,North,0,0.0,-999.0,58,-99.99,,,0.00,Acu-Link.com,2013-05-13 11:07:00,
2013-05-13 07:22:00,63.3,48.3,29.93,SE,135,0.0,-999.0,58,-99.99,,,0.00,Acu-Link.com,2013-05-13 11:22:00,
2013-05-13 07:38:00,63.3,48.7,29.93,ESE,112,0.0,-999.0,59,-99.99,,,0.00,Acu-Link.com,2013-05-13 11:38:00,
2013-05-13 07:53:00,63.5,49.4,29.93,NW,315,0.0,-999.0,60,-99.99,,,0.00,Acu-Link.com,2013-05-13 11:53:00,
2013-05-13 08:08:00,63.5,48.0,29.94,SW,225,0.0,-999.0,57,-99.99,,,0.00,Acu-Link.com,2013-05-13 12:08:00,
2013-05-13 08:24:00,63.9,47.9,29.95,South,180,0.0,-999.0,56,-99.99,,,0.00,Acu-Link.com,2013-05-13 12:24:00,
2013-05-13 08:39:00,63.9,47.4,29.96,SW,225,1.1,-999.0,55,-99.99,,,0.00,Acu-Link.com,2013-05-13 12:39:00,
2013-05-13 08:54:00,64.0,47.1,29.97,West,270,1.1,-999.0,54,-99.99,,,0.00,Acu-Link.com,2013-05-13 12:54:00,
2013-05-13 09:10:00,64.8,47.7,29.97,West,270,0.0,-999.0,54,-99.99,,,0.00,Acu-Link.com,2013-05-13 13:10:00,
2013-05-13 09:25:00,65.5,47.4,29.97,WSW,247,1.1,-999.0,52,-99.99,,,0.00,Acu-Link.com,2013-05-13 13:25:00,
2013-05-13 09:40:00,66.4,48.2,29.98,SW,225,1.6,-999.0,52,-99.99,,,0.00,Acu-Link.com,2013-05-13 13:40:00,
2013-05-13 09:55:00,67.5,47.1,29.99,West,270,0.0,-999.0,48,-99.99,,,0.00,Acu-Link.com,2013-05-13 13:55:00,
2013-05-13 10:11:00,68.4,45.0,29.99,SW,225,2.2,-999.0,43,-99.99,,,0.00,Acu-Link.com,2013-05-13 14:11:00,
2013-05-13 10:26:00,69.8,47.5,29.99,West,270,0.0,-999.0,45,-99.99,,,0.00,Acu-Link.com,2013-05-13 14:26:00,
2013-05-13 10:41:00,70.3,44.2,29.99,NW,315,0.0,-999.0,39,-99.99,,,0.00,Acu-Link.com,2013-05-13 14:41:00,
2013-05-13 10:56:00,71.1,44.8,29.99,NNW,337,1.6,-999.0,39,-99.99,,,0.00,Acu-Link.com,2013-05-13 14:56:00,
2013-05-13 11:12:00,72.1,45.8,29.99,WSW,247,3.8,-999.0,39,-99.99,,,0.00,Acu-Link.com,2013-05-13 15:12:00,
2013-05-13 11:27:00,73.0,45.2,30.00,NNW,337,0.0,-999.0,37,-99.99,,,0.00,Acu-Link.com,2013-05-13 15:27:00,
2013-05-13 11:42:00,73.0,44.5,30.00,West,270,0.0,-999.0,36,-99.99,,,0.00,Acu-Link.com,2013-05-13 15:42:00,
2013-05-13 11:58:00,73.2,45.4,30.00,SSW,202,1.6,-999.0,37,-99.99,,,0.00,Acu-Link.com,2013-05-13 15:58:00,
2013-05-13 12:13:00,73.8,45.1,30.00,West,270,2.7,-999.0,36,-99.99,,,0.00,Acu-Link.com,2013-05-13 16:13:00,
2013-05-13 12:28:00,74.3,47.0,29.99,WNW,292,1.6,-999.0,38,-99.99,,,0.00,Acu-Link.com,2013-05-13 16:28:00,
2013-05-13 12:43:00,75.0,48.4,29.98,WNW,292,2.2,-999.0,39,-99.99,,,0.00,Acu-Link.com,2013-05-13 16:43:00,
2013-05-13 12:59:00,75.9,47.0,29.98,West,270,2.2,-999.0,36,-99.99,,,0.00,Acu-Link.com,2013-05-13 16:59:00,
2013-05-13 13:14:00,76.5,46.0,29.98,WNW,292,2.2,-999.0,34,-99.99,,,0.00,Acu-Link.com,2013-05-13 17:14:00,
2013-05-13 13:29:00,77.9,47.3,29.97,SW,225,1.6,-999.0,34,-99.99,,,0.00,Acu-Link.com,2013-05-13 17:29:00,
2013-05-13 13:45:00,79.5,47.1,29.97,North,0,2.2,-999.0,32,-99.99,,,0.00,Acu-Link.com,2013-05-13 17:45:00,
2013-05-13 14:00:00,79.9,45.7,29.96,WNW,292,2.2,-999.0,30,-99.99,,,0.00,Acu-Link.com,2013-05-13 18:00:00,
2013-05-13 14:15:00,79.5,47.9,29.96,NNW,337,1.6,-999.0,33,-99.99,,,0.00,Acu-Link.com,2013-05-13 18:15:00,
2013-05-13 14:31:00,81.5,44.3,29.96,WNW,292,2.7,-999.0,27,-99.99,,,0.00,Acu-Link.com,2013-05-13 18:31:00,
2013-05-13 14:46:00,79.0,44.9,29.95,NNE,22,1.6,-999.0,30,-99.99,,,0.00,Acu-Link.com,2013-05-13 18:46:00,
2013-05-13 15:01:00,79.7,44.6,29.95,NNE,22,1.1,-999.0,29,-99.99,,,0.00,Acu-Link.com,2013-05-13 19:01:00,
2013-05-13 15:16:00,82.6,44.2,29.95,NW,315,3.1,-999.0,26,-99.99,,,0.00,Acu-Link.com,2013-05-13 19:16:00,
2013-05-13 15:31:00,81.3,42.1,29.94,NNE,22,2.2,-999.0,25,-99.99,,,0.00,Acu-Link.com,2013-05-13 19:31:00,
2013-05-13 15:47:00,82.9,45.5,29.93,West,270,1.6,-999.0,27,-99.99,,,0.00,Acu-Link.com,2013-05-13 19:47:00,
2013-05-13 16:02:00,81.5,44.3,29.94,SW,225,2.7,-999.0,27,-99.99,,,0.00,Acu-Link.com,2013-05-13 20:02:00,
2013-05-13 16:17:00,82.0,39.4,29.93,NW,315,1.1,-999.0,22,-99.99,,,0.00,Acu-Link.com,2013-05-13 20:17:00,
2013-05-13 16:32:00,81.3,44.1,29.93,West,270,1.6,-999.0,27,-99.99,,,0.00,Acu-Link.com,2013-05-13 20:32:00,
2013-05-13 16:47:00,81.1,44.0,29.92,WSW,247,1.6,-999.0,27,-99.99,,,0.00,Acu-Link.com,2013-05-13 20:47:00,
2013-05-13 17:03:00,90.5,45.2,29.92,WNW,292,1.1,-999.0,21,-99.99,,,0.00,Acu-Link.com,2013-05-13 21:03:00,
2013-05-13 17:18:00,88.7,47.2,29.92,North,0,1.1,-999.0,24,-99.99,,,0.00,Acu-Link.com,2013-05-13 21:18:00,
2013-05-13 17:33:00,89.1,47.5,29.93,SSE,157,2.2,-999.0,24,-99.99,,,0.00,Acu-Link.com,2013-05-13 21:33:00,
2013-05-13 17:49:00,87.3,46.0,29.92,West,270,0.0,-999.0,24,-99.99,,,0.00,Acu-Link.com,2013-05-13 21:49:00,
2013-05-13 18:04:00,83.5,46.9,29.93,ESE,112,0.0,-999.0,28,-99.99,,,0.00,Acu-Link.com,2013-05-13 22:04:00,
2013-05-13 18:19:00,81.5,47.1,29.93,WSW,247,1.6,-999.0,30,-99.99,,,0.00,Acu-Link.com,2013-05-13 22:19:00,
2013-05-13 18:34:00,79.0,44.9,29.93,West,270,1.6,-999.0,30,-99.99,,,0.00,Acu-Link.com,2013-05-13 22:34:00,
2013-05-13 18:49:00,78.1,48.9,29.92,ESE,112,0.0,-999.0,36,-99.99,,,0.00,Acu-Link.com,2013-05-13 22:49:00,
2013-05-13 19:05:00,77.0,47.2,29.92,West,270,0.0,-999.0,35,-99.99,,,0.00,Acu-Link.com,2013-05-13 23:05:00,
2013-05-13 19:20:00,75.4,50.0,29.93,SW,225,0.0,-999.0,41,-99.99,,,0.00,Acu-Link.com,2013-05-13 23:20:00,
2013-05-13 19:35:00,73.6,50.9,29.92,ESE,112,0.0,-999.0,45,-99.99,,,0.00,Acu-Link.com,2013-05-13 23:35:00,
2013-05-13 19:51:00,71.2,52.2,29.93,SSE,157,0.0,-999.0,51,-99.99,,,0.00,Acu-Link.com,2013-05-13 23:51:00,
2013-05-13 20:06:00,69.6,52.2,29.94,ESE,112,0.0,-999.0,54,-99.99,,,0.00,Acu-Link.com,2013-05-14 00:06:00,
2013-05-13 20:21:00,67.3,52.5,29.94,ESE,112,0.0,-999.0,59,-99.99,,,0.00,Acu-Link.com,2013-05-14 00:21:00,
2013-05-13 20:52:00,64.6,53.8,29.96,ESE,112,0.0,-999.0,68,-99.99,,,0.00,Acu-Link.com,2013-05-14 00:52:00,
2013-05-13 21:07:00,63.3,53.8,29.96,SE,135,0.0,-999.0,71,-99.99,,,0.00,Acu-Link.com,2013-05-14 01:07:00,
2013-05-13 21:22:00,61.9,54.2,29.97,North,0,0.0,-999.0,76,-99.99,,,0.00,Acu-Link.com,2013-05-14 01:22:00,
2013-05-13 21:38:00,60.8,54.6,29.97,North,0,0.0,-999.0,80,-99.99,,,0.00,Acu-Link.com,2013-05-14 01:38:00,
2013-05-13 21:53:00,59.9,54.4,29.98,North,0,0.0,-999.0,82,-99.99,,,0.00,Acu-Link.com,2013-05-14 01:53:00,
2013-05-13 22:08:00,59.2,54.0,29.98,North,0,0.0,-999.0,83,-99.99,,,0.00,Acu-Link.com,2013-05-14 02:08:00,
2013-05-13 22:24:00,58.8,54.6,29.98,NNE,22,0.0,-999.0,86,-99.99,,,0.00,Acu-Link.com,2013-05-14 02:24:00,
2013-05-13 22:39:00,57.7,54.5,29.99,NW,315,0.0,-999.0,89,-99.99,,,0.00,Acu-Link.com,2013-05-14 02:39:00,
2013-05-13 22:54:00,57.4,53.9,29.99,SE,135,0.0,-999.0,88,-99.99,,,0.00,Acu-Link.com,2013-05-14 02:54:00,
2013-05-13 23:10:00,56.7,53.5,29.99,ESE,112,0.0,-999.0,89,-99.99,,,0.00,Acu-Link.com,2013-05-14 03:10:00,
2013-05-13 23:25:00,56.5,53.6,29.99,West,270,0.0,-999.0,90,-99.99,,,0.00,Acu-Link.com,2013-05-14 03:25:00,
2013-05-13 23:40:00,55.9,52.7,30.00,SSE,157,0.0,-999.0,89,-99.99,,,0.00,Acu-Link.com,2013-05-14 03:40:00,
2013-05-13 23:55:00,55.4,51.6,30.00,South,180,0.0,-999.0,87,-99.99,,,0.00,Acu-Link.com,2013-05-14 03:55:00,